Tracking 31028 objects as of 17-Jul-2025
HD Live streaming from Space Station
objects crossing your sky now

FENGYUN 1C DEB

Track FENGYUN 1C DEB now!
10-day predictions


NORAD ID: 31342
Int'l Code: 1999-025BQW
Perigee: 697.2 km
Apogee: 856.9 km
Inclination: 98.9 °
Period: 100.2 minutes
Semi major axis: 7148 km
RCS: 0.0151 m2 (small)
Launch date: May 10, 1999
Source: People's Republic of China (PRC)
Launch site: Taiyaun Space Center, China (TSC)

Note: This is SATELLITE DEBRIS
Your satellite tracking list
Your tracking list is empty




NASA's NSSDC Master Catalog

Two Line Element Set (TLE):
1 31342U 99025BQW 25194.08171495  .00000230  00000-0  89139-4 0  9993
2 31342  98.9109 144.8278 0111692 309.2907  49.8413 14.36563628956996
Source of the keplerian elements: AFSPC